Time,TemperatureF,DewpointF,PressureIn,WindDirection,WindDirectionDegrees,WindSpeedMPH,WindSpeedGustMPH,Humidity,HourlyPrecipIn,Conditions,Clouds,dailyrainin,SoftwareType,DateUTC
2013-01-17 00:01:00,33.1,24.3,30.11,North,0,0.0,0.0,70,0.00,,,0.00,WUHU21623XXSP,2013-01-17 06:01:00,
2013-01-17 00:07:00,32.2,23.8,30.12,North,0,0.0,0.0,70,0.00,,,0.00,WUHU21623XXSP,2013-01-17 06:07:00,
2013-01-17 00:13:00,32.2,23.5,30.12,North,0,0.0,0.0,70,0.00,,,0.00,WUHU21623XXSP,2013-01-17 06:13:00,
2013-01-17 00:18:00,32.4,23.5,30.12,North,0,0.0,0.0,70,0.00,,,0.00,WUHU21623XXSP,2013-01-17 06:18:00,
2013-01-17 00:24:00,32.5,23.8,30.12,North,0,0.0,0.0,70,0.00,,,0.00,WUHU21623XXSP,2013-01-17 06:24:00,
2013-01-17 00:28:00,32.9,24.0,30.12,North,0,0.0,2.0,70,0.00,,,0.00,WUHU21623XXSP,2013-01-17 06:28:00,
2013-01-17 00:33:00,32.7,24.0,30.12,North,0,0.0,2.0,70,0.00,,,0.00,WUHU21623XXSP,2013-01-17 06:33:00,
2013-01-17 00:39:00,33.1,24.3,30.12,North,0,2.5,2.5,70,0.00,,,0.00,WUHU21623XXSP,2013-01-17 06:39:00,
2013-01-17 00:43:00,33.4,24.1,30.12,NNW,337,4.9,4.9,69,0.00,,,0.00,WUHU21623XXSP,2013-01-17 06:43:00,
2013-01-17 00:48:00,33.8,24.3,30.12,NNW,337,3.4,5.1,68,0.00,,,0.00,WUHU21623XXSP,2013-01-17 06:48:00,
2013-01-17 00:54:00,34.3,24.8,30.12,NNW,337,2.5,6.5,67,0.00,,,0.00,WUHU21623XXSP,2013-01-17 06:54:00,
2013-01-17 00:58:00,34.9,24.6,30.12,NNW,337,0.0,2.5,66,0.00,,,0.00,WUHU21623XXSP,2013-01-17 06:58:00,
2013-01-17 01:05:00,35.2,24.6,30.12,NNW,337,4.7,4.7,65,0.00,,,0.00,WUHU21623XXSP,2013-01-17 07:05:00,
2013-01-17 01:09:00,35.4,24.3,30.12,NNW,337,5.4,5.4,64,0.00,,,0.00,WUHU21623XXSP,2013-01-17 07:09:00,
2013-01-17 01:13:00,35.6,24.6,30.12,NNW,337,3.4,5.4,64,0.00,,,0.00,WUHU21623XXSP,2013-01-17 07:13:00,
2013-01-17 01:20:00,35.8,24.4,30.13,NNW,337,5.6,6.9,64,0.00,,,0.00,WUHU21623XXSP,2013-01-17 07:20:00,
2013-01-17 01:24:00,35.4,24.4,30.13,NNW,337,2.5,5.6,64,0.00,,,0.00,WUHU21623XXSP,2013-01-17 07:24:00,
2013-01-17 01:30:00,35.1,24.4,30.13,NNW,337,1.1,4.9,65,0.00,,,0.00,WUHU21623XXSP,2013-01-17 07:30:00,
2013-01-17 01:35:00,34.7,24.1,30.13,NNW,337,0.0,2.5,65,0.00,,,0.00,WUHU21623XXSP,2013-01-17 07:35:00,
2013-01-17 01:39:00,34.9,24.1,30.13,NNW,337,0.0,0.0,65,0.00,,,0.00,WUHU21623XXSP,2013-01-17 07:39:00,
2013-01-17 01:45:00,35.2,24.3,30.13,NNW,337,4.3,4.3,65,0.00,,,0.00,WUHU21623XXSP,2013-01-17 07:45:00,
2013-01-17 01:50:00,35.2,24.6,30.13,NNW,337,0.0,4.3,65,0.00,,,0.00,WUHU21623XXSP,2013-01-17 07:50:00,
2013-01-17 01:56:00,34.9,24.3,30.13,NNW,337,0.0,4.3,65,0.00,,,0.00,WUHU21623XXSP,2013-01-17 07:56:00,
2013-01-17 02:00:00,34.3,24.1,30.13,NNW,337,2.7,2.7,66,0.00,,,0.00,WUHU21623XXSP,2013-01-17 08:00:00,
2013-01-17 02:05:00,34.3,24.1,30.13,NNW,337,3.1,3.1,65,0.00,,,0.00,WUHU21623XXSP,2013-01-17 08:05:00,
2013-01-17 02:11:00,34.2,23.9,30.13,NNW,337,0.0,3.1,66,0.00,,,0.00,WUHU21623XXSP,2013-01-17 08:11:00,
2013-01-17 02:15:00,33.6,23.5,30.13,NNW,337,0.0,0.0,67,0.00,,,0.00,WUHU21623XXSP,2013-01-17 08:15:00,
2013-01-17 02:22:00,33.4,23.9,30.13,NNW,337,1.3,4.3,68,0.00,,,0.00,WUHU21623XXSP,2013-01-17 08:22:00,
2013-01-17 02:26:00,33.6,24.1,30.13,NNW,337,1.3,4.3,68,0.00,,,0.00,WUHU21623XXSP,2013-01-17 08:26:00,
2013-01-17 02:30:00,33.6,24.1,30.13,NNW,337,0.0,1.3,68,0.00,,,0.00,WUHU21623XXSP,2013-01-17 08:30:00,
2013-01-17 02:37:00,33.8,24.3,30.13,NNW,337,0.0,0.0,68,0.00,,,0.00,WUHU21623XXSP,2013-01-17 08:37:00,
2013-01-17 02:41:00,34.0,24.1,30.14,NNW,337,0.0,0.0,67,0.00,,,0.00,WUHU21623XXSP,2013-01-17 08:41:00,
2013-01-17 02:48:00,34.3,24.4,30.14,NNW,337,3.6,3.6,67,0.00,,,0.00,WUHU21623XXSP,2013-01-17 08:48:00,
2013-01-17 02:52:00,34.3,24.4,30.13,NNW,337,0.0,3.6,67,0.00,,,0.00,WUHU21623XXSP,2013-01-17 08:52:00,
2013-01-17 02:56:00,34.3,24.1,30.13,NNW,337,0.0,0.0,66,0.00,,,0.00,WUHU21623XXSP,2013-01-17 08:56:00,
2013-01-17 03:03:00,33.6,24.1,30.14,NNW,337,0.0,0.0,68,0.00,,,0.00,WUHU21623XXSP,2013-01-17 09:03:00,
2013-01-17 03:07:00,32.7,23.6,30.13,NNW,337,0.0,0.0,69,0.00,,,0.00,WUHU21623XXSP,2013-01-17 09:07:00,
2013-01-17 03:13:00,33.1,24.0,30.14,NNW,337,3.1,3.1,69,0.00,,,0.00,WUHU21623XXSP,2013-01-17 09:13:00,
2013-01-17 03:18:00,34.3,24.8,30.13,NNW,337,3.1,4.7,68,0.00,,,0.00,WUHU21623XXSP,2013-01-17 09:18:00,
2013-01-17 03:22:00,34.7,24.8,30.14,NNW,337,0.0,4.7,67,0.00,,,0.00,WUHU21623XXSP,2013-01-17 09:22:00,
2013-01-17 03:28:00,35.2,25.0,30.14,NNW,337,0.0,2.9,66,0.00,,,0.00,WUHU21623XXSP,2013-01-17 09:28:00,
2013-01-17 03:33:00,35.4,25.2,30.14,NNW,337,0.0,0.0,66,0.00,,,0.00,WUHU21623XXSP,2013-01-17 09:33:00,
2013-01-17 03:37:00,35.6,25.0,30.14,NNW,337,0.0,4.9,65,0.00,,,0.00,WUHU21623XXSP,2013-01-17 09:37:00,
2013-01-17 03:43:00,36.1,25.5,30.14,NW,315,0.7,4.9,65,0.00,,,0.00,WUHU21623XXSP,2013-01-17 09:43:00,
2013-01-17 03:48:00,36.5,25.8,30.14,NNW,337,5.6,5.6,65,0.00,,,0.00,WUHU21623XXSP,2013-01-17 09:48:00,
2013-01-17 03:54:00,37.2,26.3,30.15,NNW,337,3.8,7.2,65,0.00,,,0.00,WUHU21623XXSP,2013-01-17 09:54:00,
2013-01-17 03:58:00,37.4,26.5,30.14,NNW,337,6.5,7.2,65,0.00,,,0.00,WUHU21623XXSP,2013-01-17 09:58:00,
2013-01-17 04:03:00,37.8,26.7,30.14,NNW,337,7.8,7.8,66,0.00,,,0.00,WUHU21623XXSP,2013-01-17 10:03:00,
2013-01-17 04:09:00,38.3,27.3,30.14,NNW,337,8.7,8.7,65,0.00,,,0.00,WUHU21623XXSP,2013-01-17 10:09:00,
2013-01-17 04:13:00,38.8,27.6,30.14,NNW,337,7.4,8.7,64,0.00,,,0.00,WUHU21623XXSP,2013-01-17 10:13:00,
2013-01-17 04:20:00,38.8,27.2,30.14,NNW,337,6.5,8.3,63,0.00,,,0.00,WUHU21623XXSP,2013-01-17 10:20:00,
2013-01-17 04:24:00,38.5,27.3,30.14,NNW,337,6.5,8.1,64,0.00,,,0.00,WUHU21623XXSP,2013-01-17 10:24:00,
2013-01-17 04:28:00,38.3,27.1,30.14,NNW,337,6.9,6.9,64,0.00,,,0.00,WUHU21623XXSP,2013-01-17 10:28:00,
2013-01-17 04:35:00,38.8,27.6,30.15,NNW,337,8.5,8.5,64,0.00,,,0.00,WUHU21623XXSP,2013-01-17 10:35:00,
2013-01-17 04:39:00,38.8,27.6,30.15,NNW,337,8.5,8.5,64,0.00,,,0.00,WUHU21623XXSP,2013-01-17 10:39:00,
2013-01-17 04:45:00,38.8,27.6,30.15,NNW,337,10.3,10.3,64,0.00,,,0.00,WUHU21623XXSP,2013-01-17 10:45:00,
2013-01-17 04:50:00,39.0,27.8,30.15,NNW,337,4.5,10.3,64,0.00,,,0.00,WUHU21623XXSP,2013-01-17 10:50:00,
2013-01-17 04:54:00,38.8,27.6,30.15,NNW,337,2.9,7.2,64,0.00,,,0.00,WUHU21623XXSP,2013-01-17 10:54:00,
2013-01-17 05:00:00,38.5,27.7,30.15,NNW,337,6.7,6.7,65,0.00,,,0.00,WUHU21623XXSP,2013-01-17 11:00:00,
2013-01-17 05:05:00,38.5,27.7,30.15,NNW,337,5.1,6.7,65,0.00,,,0.00,WUHU21623XXSP,2013-01-17 11:05:00,
2013-01-17 05:11:00,38.1,27.3,30.16,NNW,337,1.3,5.1,65,0.00,,,0.00,WUHU21623XXSP,2013-01-17 11:11:00,
2013-01-17 05:15:00,37.9,27.7,30.16,NW,315,4.9,4.9,66,0.00,,,0.00,WUHU21623XXSP,2013-01-17 11:15:00,
2013-01-17 05:20:00,37.8,27.4,30.16,NW,315,0.0,4.9,66,0.00,,,0.00,WUHU21623XXSP,2013-01-17 11:20:00,
2013-01-17 05:26:00,37.6,27.2,30.16,NW,315,1.6,2.5,66,0.00,,,0.00,WUHU21623XXSP,2013-01-17 11:26:00,
2013-01-17 05:30:00,37.2,26.9,30.16,NW,315,0.0,2.5,66,0.00,,,0.00,WUHU21623XXSP,2013-01-17 11:30:00,
2013-01-17 05:37:00,36.7,26.7,30.17,NW,315,0.0,0.0,67,0.00,,,0.00,WUHU21623XXSP,2013-01-17 11:37:00,
2013-01-17 05:41:00,36.3,26.4,30.17,NW,315,1.3,1.3,67,0.00,,,0.00,WUHU21623XXSP,2013-01-17 11:41:00,
2013-01-17 05:45:00,36.1,26.2,30.17,WNW,292,0.0,1.3,67,0.00,,,0.00,WUHU21623XXSP,2013-01-17 11:45:00,
2013-01-17 05:52:00,36.3,26.8,30.18,NW,315,2.9,3.4,68,0.00,,,0.00,WUHU21623XXSP,2013-01-17 11:52:00,
2013-01-17 05:56:00,36.7,27.1,30.18,NNW,337,2.2,3.4,68,0.00,,,0.00,WUHU21623XXSP,2013-01-17 11:56:00,
2013-01-17 06:02:00,37.2,27.6,30.18,NNW,337,3.8,3.8,68,0.00,,,0.00,WUHU21623XXSP,2013-01-17 12:02:00,
2013-01-17 06:07:00,37.2,28.0,30.18,NNW,337,3.1,3.8,69,0.00,,,0.00,WUHU21623XXSP,2013-01-17 12:07:00,
2013-01-17 06:11:00,37.4,28.2,30.18,NNW,337,3.6,3.6,69,0.00,,,0.00,WUHU21623XXSP,2013-01-17 12:11:00,
2013-01-17 06:17:00,37.4,28.2,30.18,NW,315,3.1,3.6,69,0.00,,,0.00,WUHU21623XXSP,2013-01-17 12:17:00,
2013-01-17 06:22:00,37.6,28.4,30.18,NW,315,3.1,3.6,69,0.00,,,0.00,WUHU21623XXSP,2013-01-17 12:22:00,
2013-01-17 06:26:00,37.8,28.5,30.18,NNW,337,4.5,5.8,69,0.00,,,0.00,WUHU21623XXSP,2013-01-17 12:26:00,
2013-01-17 06:32:00,38.1,28.9,30.18,NNW,337,4.7,5.8,69,0.00,,,0.00,WUHU21623XXSP,2013-01-17 12:32:00,
2013-01-17 06:37:00,38.1,28.9,30.18,NNW,337,4.7,4.7,69,0.00,,,0.00,WUHU21623XXSP,2013-01-17 12:37:00,
2013-01-17 06:43:00,38.1,28.9,30.19,NW,315,2.7,4.9,69,0.00,,,0.00,WUHU21623XXSP,2013-01-17 12:43:00,
2013-01-17 06:47:00,38.1,28.9,30.19,NW,315,4.3,4.9,69,0.00,,,0.00,WUHU21623XXSP,2013-01-17 12:47:00,
2013-01-17 06:52:00,38.3,29.0,30.19,NNW,337,1.3,4.3,69,0.00,,,0.00,WUHU21623XXSP,2013-01-17 12:52:00,
2013-01-17 06:58:00,38.5,29.2,30.19,NNW,337,2.0,2.5,69,0.00,,,0.00,WUHU21623XXSP,2013-01-17 12:58:00,
2013-01-17 07:02:00,38.8,29.5,30.19,NW,315,0.4,3.6,69,0.00,,,0.00,WUHU21623XXSP,2013-01-17 13:02:00,
2013-01-17 07:09:00,38.7,29.3,30.20,NW,315,0.0,3.6,69,0.00,,,0.00,WUHU21623XXSP,2013-01-17 13:09:00,
2013-01-17 07:13:00,38.3,29.0,30.20,NW,315,0.0,0.9,69,0.00,,,0.00,WUHU21623XXSP,2013-01-17 13:13:00,
2013-01-17 07:17:00,37.8,28.5,30.20,NW,315,0.0,0.0,69,0.00,,,0.00,WUHU21623XXSP,2013-01-17 13:17:00,
2013-01-17 07:24:00,36.7,27.9,30.21,NW,315,0.0,0.0,70,0.00,,,0.00,WUHU21623XXSP,2013-01-17 13:24:00,
2013-01-17 07:28:00,36.1,27.3,30.20,NW,315,0.0,0.0,70,0.00,,,0.00,WUHU21623XXSP,2013-01-17 13:28:00,
2013-01-17 07:35:00,35.4,26.9,30.21,NW,315,0.0,0.0,71,0.00,,,0.00,WUHU21623XXSP,2013-01-17 13:35:00,
2013-01-17 07:39:00,35.2,27.1,30.20,NW,315,0.0,0.0,72,0.00,,,0.00,WUHU21623XXSP,2013-01-17 13:39:00,
2013-01-17 07:43:00,35.2,27.1,30.20,NW,315,0.0,0.0,72,0.00,,,0.00,WUHU21623XXSP,2013-01-17 13:43:00,
2013-01-17 07:49:00,36.5,29.0,30.21,NW,315,0.0,0.0,74,0.00,,,0.00,WUHU21623XXSP,2013-01-17 13:49:00,
2013-01-17 07:54:00,37.9,30.4,30.21,NW,315,0.0,0.0,74,0.00,,,0.00,WUHU21623XXSP,2013-01-17 13:54:00,
2013-01-17 08:00:00,39.4,31.0,30.21,NW,315,0.0,0.0,72,0.00,,,0.00,WUHU21623XXSP,2013-01-17 14:00:00,
2013-01-17 08:04:00,39.7,31.1,30.21,NW,315,1.6,1.6,71,0.00,,,0.00,WUHU21623XXSP,2013-01-17 14:04:00,
2013-01-17 08:09:00,40.6,31.6,30.21,NW,315,0.0,1.6,70,0.00,,,0.00,WUHU21623XXSP,2013-01-17 14:09:00,
2013-01-17 08:15:00,42.6,33.2,30.21,NNW,337,2.9,2.9,69,0.00,,,0.00,WUHU21623XXSP,2013-01-17 14:15:00,
2013-01-17 08:19:00,44.4,34.1,30.22,NNW,337,2.5,3.6,67,0.00,,,0.00,WUHU21623XXSP,2013-01-17 14:19:00,
2013-01-17 08:26:00,46.2,34.7,30.22,NNW,337,1.6,4.7,64,0.00,,,0.00,WUHU21623XXSP,2013-01-17 14:26:00,
2013-01-17 08:30:00,47.5,35.1,30.22,NNW,337,3.6,4.7,62,0.00,,,0.00,WUHU21623XXSP,2013-01-17 14:30:00,
2013-01-17 08:34:00,48.6,35.4,30.22,NW,315,6.3,6.3,60,0.00,,,0.00,WUHU21623XXSP,2013-01-17 14:34:00,
2013-01-17 08:41:00,49.6,35.4,30.23,North,0,6.3,6.7,58,0.00,,,0.00,WUHU21623XXSP,2013-01-17 14:41:00,
2013-01-17 08:45:00,50.7,35.6,30.23,North,0,2.9,6.7,57,0.00,,,0.00,WUHU21623XXSP,2013-01-17 14:45:00,
2013-01-17 08:49:00,51.6,35.9,30.23,NNW,337,6.5,6.5,55,0.00,,,0.00,WUHU21623XXSP,2013-01-17 14:49:00,
2013-01-17 08:56:00,51.6,35.4,30.23,NNW,337,5.4,6.5,54,0.00,,,0.00,WUHU21623XXSP,2013-01-17 14:56:00,
2013-01-17 09:00:00,52.3,35.6,30.24,NNW,337,4.0,6.7,53,0.00,,,0.00,WUHU21623XXSP,2013-01-17 15:00:00,
2013-01-17 09:07:00,53.4,36.2,30.24,North,0,7.6,7.6,52,0.00,,,0.00,WUHU21623XXSP,2013-01-17 15:07:00,
2013-01-17 09:11:00,54.0,35.7,30.24,NNW,337,5.4,7.6,50,0.00,,,0.00,WUHU21623XXSP,2013-01-17 15:11:00,
2013-01-17 09:15:00,54.0,35.7,30.25,NNW,337,5.4,5.4,50,0.00,,,0.00,WUHU21623XXSP,2013-01-17 15:15:00,
2013-01-17 09:22:00,54.7,35.8,30.25,North,0,8.1,8.1,49,0.00,,,0.00,WUHU21623XXSP,2013-01-17 15:22:00,
2013-01-17 09:26:00,55.0,36.2,30.25,NNW,337,6.7,8.1,49,0.00,,,0.00,WUHU21623XXSP,2013-01-17 15:26:00,
2013-01-17 09:32:00,57.2,37.7,30.26,North,0,3.1,8.1,48,0.00,,,0.00,WUHU21623XXSP,2013-01-17 15:32:00,
2013-01-17 09:37:00,58.6,38.4,30.26,NNE,22,0.0,6.7,47,0.00,,,0.00,WUHU21623XXSP,2013-01-17 15:37:00,
2013-01-17 09:41:00,60.4,38.9,30.26,NNE,22,0.0,2.9,45,0.00,,,0.00,WUHU21623XXSP,2013-01-17 15:41:00,
2013-01-17 09:47:00,61.7,39.4,30.26,NNE,22,0.0,2.9,44,0.00,,,0.00,WUHU21623XXSP,2013-01-17 15:47:00,
2013-01-17 09:52:00,60.4,37.1,30.27,NE,45,2.0,5.6,42,0.00,,,0.00,WUHU21623XXSP,2013-01-17 15:52:00,
2013-01-17 09:58:00,58.6,36.7,30.27,NE,45,0.9,5.6,44,0.00,,,0.00,WUHU21623XXSP,2013-01-17 15:58:00,
2013-01-17 10:02:00,57.9,36.0,30.27,NE,45,3.1,3.1,44,0.00,,,0.00,WUHU21623XXSP,2013-01-17 16:02:00,
2013-01-17 10:07:00,57.9,36.6,30.27,NE,45,0.0,3.1,45,0.00,,,0.00,WUHU21623XXSP,2013-01-17 16:07:00,
2013-01-17 10:13:00,57.7,36.4,30.28,NNE,22,4.7,4.7,45,0.00,,,0.00,WUHU21623XXSP,2013-01-17 16:13:00,
2013-01-17 10:17:00,57.6,35.7,30.27,NE,45,11.2,11.2,44,0.00,,,0.00,WUHU21623XXSP,2013-01-17 16:17:00,
2013-01-17 10:24:00,57.0,35.8,30.28,NNW,337,11.6,11.6,45,0.00,,,0.00,WUHU21623XXSP,2013-01-17 16:24:00,
2013-01-17 10:28:00,57.0,35.8,30.27,North,0,3.6,11.6,45,0.00,,,0.00,WUHU21623XXSP,2013-01-17 16:28:00,
2013-01-17 10:32:00,57.4,36.1,30.27,NNW,337,13.4,13.4,45,0.00,,,0.00,WUHU21623XXSP,2013-01-17 16:32:00,
2013-01-17 10:39:00,57.4,36.1,30.28,NNE,22,6.5,13.4,45,0.00,,,0.00,WUHU21623XXSP,2013-01-17 16:39:00,
2013-01-17 10:43:00,57.7,36.4,30.28,NNE,22,9.2,9.2,45,0.00,,,0.00,WUHU21623XXSP,2013-01-17 16:43:00,
2013-01-17 10:49:00,58.3,36.4,30.28,NNE,22,6.7,9.2,44,0.00,,,0.00,WUHU21623XXSP,2013-01-17 16:49:00,
2013-01-17 10:54:00,58.5,36.5,30.27,ENE,67,0.0,8.9,44,0.00,,,0.00,WUHU21623XXSP,2013-01-17 16:54:00,
2013-01-17 10:58:00,58.8,36.8,30.27,NE,45,1.3,8.9,44,0.00,,,0.00,WUHU21623XXSP,2013-01-17 16:58:00,
2013-01-17 11:04:00,59.5,36.9,30.27,NNE,22,6.9,11.4,43,0.00,,,0.00,WUHU21623XXSP,2013-01-17 17:04:00,
2013-01-17 11:09:00,59.5,36.9,30.27,NE,45,6.5,11.4,43,0.00,,,0.00,WUHU21623XXSP,2013-01-17 17:09:00,
2013-01-17 11:15:00,59.7,36.5,30.26,ENE,67,7.2,7.2,42,0.00,,,0.00,WUHU21623XXSP,2013-01-17 17:15:00,
2013-01-17 11:19:00,59.9,36.7,30.26,NE,45,7.2,7.2,42,0.00,,,0.00,WUHU21623XXSP,2013-01-17 17:19:00,
2013-01-17 11:24:00,60.4,36.6,30.26,NE,45,9.4,9.4,41,0.00,,,0.00,WUHU21623XXSP,2013-01-17 17:24:00,
2013-01-17 11:30:00,61.0,36.5,30.26,NNE,22,13.4,15.7,40,0.00,,,0.00,WUHU21623XXSP,2013-01-17 17:30:00,
2013-01-17 11:34:00,61.3,36.8,30.26,NE,45,7.8,15.7,40,0.00,,,0.00,WUHU21623XXSP,2013-01-17 17:34:00,
2013-01-17 11:41:00,61.9,37.3,30.25,ENE,67,8.3,13.6,40,0.00,,,0.00,WUHU21623XXSP,2013-01-17 17:41:00,
2013-01-17 11:45:00,61.9,36.6,30.25,NNE,22,6.9,8.5,39,0.00,,,0.00,WUHU21623XXSP,2013-01-17 17:45:00,
2013-01-17 11:49:00,62.4,37.1,30.25,NNE,22,9.6,9.8,39,0.00,,,0.00,WUHU21623XXSP,2013-01-17 17:49:00,
2013-01-17 11:56:00,62.4,37.1,30.25,East,90,7.8,10.3,39,0.00,,,0.00,WUHU21623XXSP,2013-01-17 17:56:00,
2013-01-17 12:00:00,63.0,36.8,30.24,NE,45,11.0,13.9,38,0.00,,,0.00,WUHU21623XXSP,2013-01-17 18:00:00,
2013-01-17 12:06:00,62.8,37.4,30.24,NE,45,9.4,13.9,39,0.00,,,0.00,WUHU21623XXSP,2013-01-17 18:06:00,
2013-01-17 12:11:00,62.4,36.7,30.25,NE,45,10.1,10.1,38,0.00,,,0.00,WUHU21623XXSP,2013-01-17 18:11:00,
2013-01-17 12:15:00,62.6,36.5,30.24,NE,45,11.6,11.6,38,0.00,,,0.00,WUHU21623XXSP,2013-01-17 18:15:00,
2013-01-17 12:21:00,62.6,36.5,30.24,NNE,22,6.9,13.6,38,0.00,,,0.00,WUHU21623XXSP,2013-01-17 18:21:00,
2013-01-17 12:26:00,63.1,37.7,30.23,NNE,22,4.5,13.6,39,0.00,,,0.00,WUHU21623XXSP,2013-01-17 18:26:00,
2013-01-17 12:30:00,63.3,36.4,30.23,NNE,22,7.8,9.4,37,0.00,,,0.00,WUHU21623XXSP,2013-01-17 18:30:00,
2013-01-17 12:36:00,63.1,37.0,30.23,North,0,11.0,11.0,38,0.00,,,0.00,WUHU21623XXSP,2013-01-17 18:36:00,
2013-01-17 12:41:00,63.1,37.0,30.23,NNE,22,4.9,11.4,38,0.00,,,0.00,WUHU21623XXSP,2013-01-17 18:41:00,
2013-01-17 12:47:00,63.5,36.6,30.22,NNE,22,6.0,12.3,37,0.00,,,0.00,WUHU21623XXSP,2013-01-17 18:47:00,
2013-01-17 12:51:00,63.5,36.6,30.22,NNE,22,3.8,12.3,37,0.00,,,0.00,WUHU21623XXSP,2013-01-17 18:51:00,
2013-01-17 12:56:00,63.7,36.8,30.22,NNE,22,8.3,8.3,37,0.00,,,0.00,WUHU21623XXSP,2013-01-17 18:56:00,
2013-01-17 13:02:00,63.7,36.8,30.21,NNE,22,8.1,16.1,37,0.00,,,0.00,WUHU21623XXSP,2013-01-17 19:02:00,
2013-01-17 13:06:00,63.9,36.9,30.21,ENE,67,6.5,13.0,37,0.00,,,0.00,WUHU21623XXSP,2013-01-17 19:06:00,
2013-01-17 13:13:00,64.6,37.6,30.21,North,0,11.2,11.2,37,0.00,,,0.00,WUHU21623XXSP,2013-01-17 19:13:00,
2013-01-17 13:17:00,64.6,36.8,30.20,NNE,22,11.2,11.2,36,0.00,,,0.00,WUHU21623XXSP,2013-01-17 19:17:00,
2013-01-17 13:21:00,64.6,36.1,30.20,NE,45,11.6,11.6,35,0.00,,,0.00,WUHU21623XXSP,2013-01-17 19:21:00,
2013-01-17 13:28:00,64.2,36.0,30.20,NE,45,8.9,11.6,36,0.00,,,0.00,WUHU21623XXSP,2013-01-17 19:28:00,
2013-01-17 13:32:00,65.1,37.3,30.20,NNE,22,7.6,8.9,36,0.00,,,0.00,WUHU21623XXSP,2013-01-17 19:32:00,
2013-01-17 13:38:00,65.1,37.2,30.19,NE,45,3.8,7.6,36,0.00,,,0.00,WUHU21623XXSP,2013-01-17 19:38:00,
2013-01-17 13:43:00,65.5,36.9,30.19,NNE,22,6.3,6.3,35,0.00,,,0.00,WUHU21623XXSP,2013-01-17 19:43:00,
2013-01-17 13:47:00,65.5,37.7,30.19,North,0,8.1,8.1,36,0.00,,,0.00,WUHU21623XXSP,2013-01-17 19:47:00,
2013-01-17 13:53:00,65.5,37.7,30.19,NE,45,4.3,8.1,36,0.00,,,0.00,WUHU21623XXSP,2013-01-17 19:53:00,
2013-01-17 13:58:00,65.5,36.9,30.18,NE,45,7.2,7.2,35,0.00,,,0.00,WUHU21623XXSP,2013-01-17 19:58:00,
2013-01-17 14:04:00,65.5,36.2,30.18,NE,45,6.9,9.4,34,0.00,,,0.00,WUHU21623XXSP,2013-01-17 20:04:00,
2013-01-17 14:08:00,65.5,36.2,30.18,North,0,12.5,12.5,34,0.00,,,0.00,WUHU21623XXSP,2013-01-17 20:08:00,
2013-01-17 14:13:00,65.5,36.4,30.18,NNE,22,12.5,12.5,33,0.00,,,0.00,WUHU21623XXSP,2013-01-17 20:13:00,
2013-01-17 14:19:00,65.3,36.0,30.18,ENE,67,15.0,17.4,34,0.00,,,0.00,WUHU21623XXSP,2013-01-17 20:19:00,
2013-01-17 14:23:00,65.5,36.2,30.18,NNE,22,15.0,17.4,34,0.00,,,0.00,WUHU21623XXSP,2013-01-17 20:23:00,
2013-01-17 14:30:00,65.7,35.7,30.18,NNE,22,4.5,15.0,33,0.00,,,0.00,WUHU21623XXSP,2013-01-17 20:30:00,
2013-01-17 14:34:00,65.5,36.2,30.18,NNE,22,10.1,15.0,34,0.00,,,0.00,WUHU21623XXSP,2013-01-17 20:34:00,
2013-01-17 14:38:00,65.7,35.7,30.18,North,0,10.1,11.6,33,0.00,,,0.00,WUHU21623XXSP,2013-01-17 20:38:00,
2013-01-17 14:45:00,65.8,36.5,30.18,North,0,6.5,10.1,34,0.00,,,0.00,WUHU21623XXSP,2013-01-17 20:45:00,
2013-01-17 14:49:00,66.0,36.0,30.18,North,0,6.5,6.5,33,0.00,,,0.00,WUHU21623XXSP,2013-01-17 20:49:00,
2013-01-17 14:55:00,66.0,36.0,30.18,North,0,9.8,9.8,33,0.00,,,0.00,WUHU21623XXSP,2013-01-17 20:55:00,
2013-01-17 15:00:00,65.8,35.8,30.18,North,0,7.6,11.2,33,0.00,,,0.00,WUHU21623XXSP,2013-01-17 21:00:00,
2013-01-17 15:04:00,66.0,36.0,30.18,NE,45,7.8,11.2,33,0.00,,,0.00,WUHU21623XXSP,2013-01-17 21:04:00,
2013-01-17 15:10:00,66.0,36.0,30.18,NE,45,7.2,7.8,32,0.00,,,0.00,WUHU21623XXSP,2013-01-17 21:10:00,
2013-01-17 15:15:00,66.0,36.0,30.18,NE,45,8.7,8.7,32,0.00,,,0.00,WUHU21623XXSP,2013-01-17 21:15:00,
2013-01-17 15:21:00,65.8,35.8,30.18,WSW,247,7.6,8.7,33,0.00,,,0.00,WUHU21623XXSP,2013-01-17 21:21:00,
2013-01-17 15:25:00,66.0,36.0,30.18,WSW,247,9.2,9.2,33,0.00,,,0.00,WUHU21623XXSP,2013-01-17 21:25:00,
2013-01-17 15:30:00,65.8,35.8,30.18,WSW,247,12.1,12.1,33,0.00,,,0.00,WUHU21623XXSP,2013-01-17 21:30:00,
2013-01-17 15:36:00,66.0,36.0,30.19,WSW,247,9.6,12.1,33,0.00,,,0.00,WUHU21623XXSP,2013-01-17 21:36:00,
2013-01-17 15:40:00,66.0,36.0,30.19,WSW,247,7.4,9.6,33,0.00,,,0.00,WUHU21623XXSP,2013-01-17 21:40:00,
2013-01-17 15:47:00,66.0,36.0,30.18,WSW,247,13.4,13.4,33,0.00,,,0.00,WUHU21623XXSP,2013-01-17 21:47:00,
2013-01-17 15:51:00,65.8,35.1,30.19,WSW,247,10.3,13.4,32,0.00,,,0.00,WUHU21623XXSP,2013-01-17 21:51:00,
2013-01-17 15:55:00,65.5,35.7,30.19,WSW,247,10.3,10.3,33,0.00,,,0.00,WUHU21623XXSP,2013-01-17 21:55:00,
2013-01-17 16:02:00,65.5,35.5,30.19,WSW,247,10.7,10.7,32,0.00,,,0.00,WUHU21623XXSP,2013-01-17 22:02:00,
2013-01-17 16:06:00,65.5,34.8,30.19,WSW,247,6.3,10.7,32,0.00,,,0.00,WUHU21623XXSP,2013-01-17 22:06:00,
2013-01-17 16:10:00,65.5,34.8,30.20,WSW,247,11.4,11.4,32,0.00,,,0.00,WUHU21623XXSP,2013-01-17 22:10:00,
2013-01-17 16:17:00,65.5,35.5,30.19,WSW,247,9.8,11.4,33,0.00,,,0.00,WUHU21623XXSP,2013-01-17 22:17:00,
2013-01-17 16:21:00,65.3,35.3,30.19,WSW,247,5.1,9.8,33,0.00,,,0.00,WUHU21623XXSP,2013-01-17 22:21:00,
2013-01-17 16:27:00,65.3,35.3,30.20,WSW,247,3.6,8.9,33,0.00,,,0.00,WUHU21623XXSP,2013-01-17 22:27:00,
2013-01-17 16:32:00,65.3,35.3,30.20,WSW,247,8.5,8.9,33,0.00,,,0.00,WUHU21623XXSP,2013-01-17 22:32:00,
2013-01-17 16:36:00,65.1,35.2,30.20,WSW,247,8.5,8.5,33,0.00,,,0.00,WUHU21623XXSP,2013-01-17 22:36:00,
2013-01-17 16:42:00,64.9,35.0,30.20,WSW,247,5.6,12.8,33,0.00,,,0.00,WUHU21623XXSP,2013-01-17 22:42:00,
2013-01-17 16:47:00,64.8,35.6,30.20,WSW,247,9.6,12.8,34,0.00,,,0.00,WUHU21623XXSP,2013-01-17 22:47:00,
2013-01-17 16:53:00,64.6,35.4,30.20,WSW,247,8.3,10.5,34,0.00,,,0.00,WUHU21623XXSP,2013-01-17 22:53:00,
2013-01-17 16:57:00,64.6,34.7,30.21,WSW,247,8.3,10.5,33,0.00,,,0.00,WUHU21623XXSP,2013-01-17 22:57:00,
2013-01-17 17:02:00,64.2,35.4,30.21,WSW,247,6.0,8.3,33,0.00,,,0.00,WUHU21623XXSP,2013-01-17 23:02:00,
2013-01-17 17:08:00,64.2,35.1,30.21,NNE,22,8.9,13.2,34,0.00,,,0.00,WUHU21623XXSP,2013-01-17 23:08:00,
2013-01-17 17:12:00,64.0,34.9,30.21,NNE,22,11.6,13.2,34,0.00,,,0.00,WUHU21623XXSP,2013-01-17 23:12:00,
2013-01-17 17:19:00,63.7,34.6,30.21,NE,45,6.9,11.6,34,0.00,,,0.00,WUHU21623XXSP,2013-01-17 23:19:00,
2013-01-17 17:23:00,63.7,34.6,30.21,NE,45,4.9,7.2,34,0.00,,,0.00,WUHU21623XXSP,2013-01-17 23:23:00,
2013-01-17 17:27:00,63.5,34.4,30.21,NNE,22,3.8,7.2,35,0.00,,,0.00,WUHU21623XXSP,2013-01-17 23:27:00,
2013-01-17 17:34:00,63.0,34.7,30.21,NNE,22,7.8,8.1,35,0.00,,,0.00,WUHU21623XXSP,2013-01-17 23:34:00,
2013-01-17 17:38:00,62.8,34.5,30.22,NE,45,7.2,8.1,35,0.00,,,0.00,WUHU21623XXSP,2013-01-17 23:38:00,
2013-01-17 17:44:00,62.2,34.7,30.22,NNE,22,0.7,7.8,36,0.00,,,0.00,WUHU21623XXSP,2013-01-17 23:44:00,
2013-01-17 17:49:00,61.5,34.8,30.22,NNE,22,1.8,6.3,37,0.00,,,0.00,WUHU21623XXSP,2013-01-17 23:49:00,
2013-01-17 17:53:00,60.8,34.5,30.22,NNE,22,1.8,1.8,37,0.00,,,0.00,WUHU21623XXSP,2013-01-17 23:53:00,
2013-01-17 17:59:00,59.7,33.9,30.23,NNE,22,0.9,1.8,38,0.00,,,0.00,WUHU21623XXSP,2013-01-17 23:59:00,
2013-01-17 18:04:00,58.8,33.8,30.23,NNE,22,0.7,1.6,39,0.00,,,0.00,WUHU21623XXSP,2013-01-18 00:04:00,
2013-01-17 18:10:00,58.3,34.6,30.23,NNE,22,1.6,2.2,41,0.00,,,0.00,WUHU21623XXSP,2013-01-18 00:10:00,
2013-01-17 18:14:00,57.9,34.3,30.23,NNE,22,1.3,2.2,41,0.00,,,0.00,WUHU21623XXSP,2013-01-18 00:14:00,
2013-01-17 18:19:00,57.6,34.1,30.23,NNE,22,0.0,1.3,42,0.00,,,0.00,WUHU21623XXSP,2013-01-18 00:19:00,
2013-01-17 18:25:00,56.5,33.6,30.23,NNE,22,0.0,0.0,42,0.00,,,0.00,WUHU21623XXSP,2013-01-18 00:25:00,
2013-01-17 18:29:00,55.9,33.6,30.23,NNE,22,0.0,0.0,43,0.00,,,0.00,WUHU21623XXSP,2013-01-18 00:29:00,
2013-01-17 18:36:00,55.2,33.0,30.23,NNE,22,0.0,0.0,43,0.00,,,0.00,WUHU21623XXSP,2013-01-18 00:36:00,
2013-01-17 18:40:00,55.0,33.4,30.23,NNE,22,0.0,0.0,44,0.00,,,0.00,WUHU21623XXSP,2013-01-18 00:40:00,
2013-01-17 18:44:00,54.7,33.0,30.23,NNE,22,0.0,0.0,44,0.00,,,0.00,WUHU21623XXSP,2013-01-18 00:44:00,
2013-01-17 18:51:00,53.8,33.4,30.24,NNE,22,0.0,0.0,46,0.00,,,0.00,WUHU21623XXSP,2013-01-18 00:51:00,
2013-01-17 18:55:00,52.9,33.1,30.24,NNE,22,0.0,0.0,47,0.00,,,0.00,WUHU21623XXSP,2013-01-18 00:55:00,
2013-01-17 19:01:00,52.0,32.8,30.24,NNE,22,0.0,0.0,48,0.00,,,0.00,WUHU21623XXSP,2013-01-18 01:01:00,
2013-01-17 19:06:00,51.3,32.8,30.24,NNE,22,0.0,0.0,49,0.00,,,0.00,WUHU21623XXSP,2013-01-18 01:06:00,
2013-01-17 19:10:00,50.7,32.8,30.24,NNE,22,0.0,0.0,50,0.00,,,0.00,WUHU21623XXSP,2013-01-18 01:10:00,
2013-01-17 19:17:00,50.7,33.3,30.24,NNE,22,0.0,0.0,51,0.00,,,0.00,WUHU21623XXSP,2013-01-18 01:17:00,
2013-01-17 19:21:00,50.5,33.1,30.24,NNE,22,0.0,0.0,51,0.00,,,0.00,WUHU21623XXSP,2013-01-18 01:21:00,
2013-01-17 19:27:00,49.8,32.9,30.24,NNE,22,0.0,0.0,52,0.00,,,0.00,WUHU21623XXSP,2013-01-18 01:27:00,
2013-01-17 19:31:00,49.5,33.0,30.25,NNE,22,0.0,0.0,53,0.00,,,0.00,WUHU21623XXSP,2013-01-18 01:31:00,
2013-01-17 19:36:00,49.1,32.6,30.25,NNE,22,0.0,0.0,53,0.00,,,0.00,WUHU21623XXSP,2013-01-18 01:36:00,
2013-01-17 19:42:00,48.7,32.8,30.25,NNE,22,0.0,0.0,54,0.00,,,0.00,WUHU21623XXSP,2013-01-18 01:42:00,
2013-01-17 19:46:00,48.0,33.0,30.25,NNE,22,0.0,0.0,56,0.00,,,0.00,WUHU21623XXSP,2013-01-18 01:46:00,
2013-01-17 19:53:00,47.5,33.0,30.26,NNE,22,0.0,0.0,57,0.00,,,0.00,WUHU21623XXSP,2013-01-18 01:53:00,
2013-01-17 19:57:00,47.1,32.6,30.25,NNE,22,0.0,0.0,57,0.00,,,0.00,WUHU21623XXSP,2013-01-18 01:57:00,
2013-01-17 20:01:00,46.9,33.1,30.26,NNE,22,0.0,0.0,58,0.00,,,0.00,WUHU21623XXSP,2013-01-18 02:01:00,
2013-01-17 20:08:00,46.2,32.6,30.26,NNE,22,0.0,0.0,59,0.00,,,0.00,WUHU21623XXSP,2013-01-18 02:08:00,
2013-01-17 20:12:00,46.0,32.5,30.26,NNE,22,0.0,0.0,59,0.00,,,0.00,WUHU21623XXSP,2013-01-18 02:12:00,
2013-01-17 20:16:00,46.2,32.6,30.26,NNE,22,0.0,0.0,59,0.00,,,0.00,WUHU21623XXSP,2013-01-18 02:16:00,
2013-01-17 20:23:00,46.2,33.1,30.26,NNE,22,0.0,0.0,60,0.00,,,0.00,WUHU21623XXSP,2013-01-18 02:23:00,
2013-01-17 20:27:00,46.0,32.9,30.26,NNE,22,0.0,0.0,60,0.00,,,0.00,WUHU21623XXSP,2013-01-18 02:27:00,
2013-01-17 20:34:00,46.0,32.5,30.26,NNE,22,0.0,0.0,59,0.00,,,0.00,WUHU21623XXSP,2013-01-18 02:34:00,
2013-01-17 20:38:00,46.0,32.5,30.26,NNE,22,0.0,0.0,59,0.00,,,0.00,WUHU21623XXSP,2013-01-18 02:38:00,
2013-01-17 20:42:00,46.2,32.6,30.26,NNE,22,0.0,0.0,59,0.00,,,0.00,WUHU21623XXSP,2013-01-18 02:42:00,
2013-01-17 20:49:00,46.0,32.0,30.26,NNE,22,0.0,0.0,58,0.00,,,0.00,WUHU21623XXSP,2013-01-18 02:49:00,
2013-01-17 20:53:00,46.0,32.0,30.26,NNE,22,0.0,0.0,58,0.00,,,0.00,WUHU21623XXSP,2013-01-18 02:53:00,
2013-01-17 20:59:00,46.2,32.6,30.26,NNE,22,0.0,0.0,59,0.00,,,0.00,WUHU21623XXSP,2013-01-18 02:59:00,
2013-01-17 21:04:00,46.2,32.6,30.26,NNE,22,0.0,0.0,59,0.00,,,0.00,WUHU21623XXSP,2013-01-18 03:04:00,
2013-01-17 21:08:00,46.2,32.6,30.27,NNE,22,0.0,0.0,59,0.00,,,0.00,WUHU21623XXSP,2013-01-18 03:08:00,
2013-01-17 21:14:00,46.0,32.9,30.27,NNE,22,0.0,0.0,60,0.00,,,0.00,WUHU21623XXSP,2013-01-18 03:14:00,
2013-01-17 21:19:00,45.7,33.0,30.27,NNE,22,0.0,0.0,61,0.00,,,0.00,WUHU21623XXSP,2013-01-18 03:19:00,
2013-01-17 21:25:00,45.5,32.8,30.27,NNE,22,0.0,0.0,61,0.00,,,0.00,WUHU21623XXSP,2013-01-18 03:25:00,
2013-01-17 21:29:00,45.7,33.0,30.27,NNE,22,0.0,0.0,61,0.00,,,0.00,WUHU21623XXSP,2013-01-18 03:29:00,
2013-01-17 21:34:00,46.0,33.3,30.27,NNE,22,0.0,0.0,61,0.00,,,0.00,WUHU21623XXSP,2013-01-18 03:34:00,
2013-01-17 21:40:00,46.2,33.5,30.27,NNE,22,0.0,1.1,61,0.00,,,0.00,WUHU21623XXSP,2013-01-18 03:40:00,
2013-01-17 21:44:00,46.2,33.5,30.27,NNE,22,0.0,1.1,61,0.00,,,0.00,WUHU21623XXSP,2013-01-18 03:44:00,
2013-01-17 21:51:00,46.2,33.5,30.27,NNE,22,0.0,0.0,61,0.00,,,0.00,WUHU21623XXSP,2013-01-18 03:51:00,
2013-01-17 21:55:00,46.2,33.5,30.27,NNE,22,0.0,0.0,61,0.00,,,0.00,WUHU21623XXSP,2013-01-18 03:55:00,
2013-01-17 21:59:00,46.6,33.8,30.27,NNE,22,0.0,0.0,61,0.00,,,0.00,WUHU21623XXSP,2013-01-18 03:59:00,
2013-01-17 22:06:00,46.4,33.7,30.27,NNE,22,1.8,3.1,61,0.00,,,0.00,WUHU21623XXSP,2013-01-18 04:06:00,
2013-01-17 22:10:00,46.6,33.8,30.28,NNE,22,0.0,3.1,61,0.00,,,0.00,WUHU21623XXSP,2013-01-18 04:10:00,
2013-01-17 22:16:00,46.2,33.5,30.28,ESE,112,4.0,4.0,61,0.00,,,0.00,WUHU21623XXSP,2013-01-18 04:16:00,
2013-01-17 22:21:00,44.4,32.2,30.28,ESE,112,0.0,4.0,62,0.00,,,0.00,WUHU21623XXSP,2013-01-18 04:21:00,
2013-01-17 22:25:00,43.9,32.5,30.28,East,90,0.0,0.0,64,0.00,,,0.00,WUHU21623XXSP,2013-01-18 04:25:00,
2013-01-17 22:31:00,45.1,33.3,30.28,NE,45,2.7,4.5,63,0.00,,,0.00,WUHU21623XXSP,2013-01-18 04:31:00,
2013-01-17 22:36:00,45.1,33.3,30.28,ENE,67,0.9,4.5,63,0.00,,,0.00,WUHU21623XXSP,2013-01-18 04:36:00,
2013-01-17 22:42:00,44.8,32.9,30.28,ENE,67,2.0,4.3,63,0.00,,,0.00,WUHU21623XXSP,2013-01-18 04:42:00,
2013-01-17 22:46:00,44.8,32.9,30.28,NE,45,0.0,2.9,63,0.00,,,0.00,WUHU21623XXSP,2013-01-18 04:46:00,
2013-01-17 22:51:00,44.6,33.2,30.28,NE,45,0.0,2.7,64,0.00,,,0.00,WUHU21623XXSP,2013-01-18 04:51:00,
2013-01-17 22:57:00,44.4,33.0,30.28,NE,45,3.1,3.1,64,0.00,,,0.00,WUHU21623XXSP,2013-01-18 04:57:00,
2013-01-17 23:01:00,44.4,33.0,30.28,NE,45,3.1,3.1,64,0.00,,,0.00,WUHU21623XXSP,2013-01-18 05:01:00,
2013-01-17 23:06:00,44.2,32.8,30.28,NE,45,2.0,3.1,64,0.00,,,0.00,WUHU21623XXSP,2013-01-18 05:06:00,
2013-01-17 23:12:00,44.2,32.8,30.28,NE,45,4.0,4.0,64,0.00,,,0.00,WUHU21623XXSP,2013-01-18 05:12:00,
2013-01-17 23:16:00,44.2,32.8,30.28,NE,45,3.6,4.0,64,0.00,,,0.00,WUHU21623XXSP,2013-01-18 05:16:00,
2013-01-17 23:23:00,44.4,33.0,30.28,NE,45,3.1,5.4,64,0.00,,,0.00,WUHU21623XXSP,2013-01-18 05:23:00,
2013-01-17 23:27:00,44.8,33.3,30.28,NE,45,3.8,5.4,64,0.00,,,0.00,WUHU21623XXSP,2013-01-18 05:27:00,
2013-01-17 23:31:00,45.0,33.5,30.28,NNE,22,4.0,4.3,64,0.00,,,0.00,WUHU21623XXSP,2013-01-18 05:31:00,
2013-01-17 23:38:00,45.1,33.7,30.28,NNE,22,3.1,4.5,64,0.00,,,0.00,WUHU21623XXSP,2013-01-18 05:38:00,
2013-01-17 23:42:00,45.3,33.8,30.28,NNE,22,5.4,5.4,64,0.00,,,0.00,WUHU21623XXSP,2013-01-18 05:42:00,
2013-01-17 23:48:00,45.3,33.4,30.28,NNE,22,3.8,5.4,63,0.00,,,0.00,WUHU21623XXSP,2013-01-18 05:48:00,
2013-01-17 23:53:00,45.3,33.8,30.28,NNE,22,4.0,7.2,64,0.00,,,0.00,WUHU21623XXSP,2013-01-18 05:53:00,
2013-01-17 23:57:00,45.5,33.6,30.28,NE,45,6.3,7.2,63,0.00,,,0.00,WUHU21623XXSP,2013-01-18 05:57:00,